This demonstration page uses our WeatherBlox Daily Observations layout. Learn more.

Left ArrowRight Arrow

39.12711, -84.51439

Hourly Observations for June 1, 2016

Temp ( °F °C ) Dew Point ( °F °C ) Humidity (%) Winds ( mph kmh ) Pressure ( in mb ) Visibility ( mi km ) Precip ( " mm )
12:53 am 00:53 Clear 63 17.2 63 17.2 100 100 N N/A 29.98 1015 7 11 N/A
1:21 am 01:21 Clear with Mist and Fog 63 17.2 62 16.7 97 97 N N/A 29.94 1014 2 3 N/A
1:32 am 01:32 Clear with Mist and Fog 63 17 63 17 100 100 N N/A 29.94 1014 3 5 N/A
1:53 am 01:53 Clear with Mist and Fog 63 17.2 63 17.2 100 100 N N/A 29.96 1015 6 10 N/A
2:25 am 02:25 Clear with Mist and Fog 62 16.7 62 16.7 100 100 N N/A 29.94 1014 2 3 N/A
2:34 am 02:34 Clear with Mist and Fog 63 17 63 17 100 100 N N/A 29.94 1014 3 5 N/A
2:53 am 02:53 Clear with Mist and Fog 63 17.2 63 17.2 100 100 NNE 3 6 29.96 1015 5 8 N/A
3:16 am 03:16 Clear with Mist and Fog 61 16.1 61 16.1 100 100 N N/A 29.94 1014 2 3 N/A
3:37 am 03:37 Clear with Fog 59 15 59 15 100 100 N N/A 29.94 1014 1 1 N/A
3:48 am 03:48 Clear with Mist and Fog 61 16 61 16 100 100 N N/A 29.94 1014 3 4 N/A
3:53 am 03:53 Clear with Mist and Fog 61 16.1 61 16.1 100 100 N N/A 29.96 1015 4 6 N/A
4:07 am 04:07 Clear with Mist and Fog 61 16.1 61 16.1 100 100 N N/A 29.94 1014 1 2 N/A
4:15 am 04:15 Clear with Fog 60 15.6 60 15.6 100 100 N N/A 29.94 1014 1 1 N/A
4:27 am 04:27 Clear with Mist and Fog 61 16.1 61 16.1 100 100 N N/A 29.94 1014 2 3 N/A
4:34 am 04:34 Mostly Cloudy with Mist and Fog 61 16 61 16 100 100 N N/A 29.94 1014 1 1 N/A
4:49 am 04:49 Mostly Clear with Mist and Fog 61 16 61 16 100 100 N N/A 29.94 1014 2 3 N/A
4:53 am 04:53 Mostly Clear with Mist and Fog 59 15 59 15 100 100 N N/A 29.97 1015 3 5 N/A
4:55 am 04:55 Mostly Clear with Mist and Fog 59 15 59 15 100 100 N N/A 29.94 1014 2 2 N/A
4:57 am 04:57 Mostly Cloudy with Mist and Fog 59 15 59 15 100 100 N N/A 29.94 1014 1 1 N/A
5:05 am 05:05 Mostly Cloudy with Fog 59 15 59 15 100 100 N N/A 29.94 1014 0 0 N/A
5:49 am 05:49 Clear with Fog 59 15 59 15 100 100 N N/A 29.94 1014 1 1 N/A
5:53 am 05:53 Mostly Cloudy with Fog 59 15 59 15 100 100 N N/A 29.97 1015 1 1 N/A
6:03 am 06:03 Mostly Cloudy with Fog 59 15 59 15 100 100 N N/A 29.97 1015 0 0 N/A
6:34 am 06:34 Mostly Cloudy with Mist and Fog 57 14 57 14 100 100 N N/A 30.00 1016 1 2 N/A
6:36 am 06:36 Mostly Cloudy with Mist and Fog 57 14 57 14 100 100 N N/A 30.00 1016 4 6 N/A
6:40 am 06:40 Mostly Cloudy with Mist and Fog 58 14.4 58 14.4 100 100 undefined N/A 30.00 1016 2 3 N/A
6:46 am 06:46 Mostly Cloudy with Mist and Fog 61 16 61 16 100 100 N N/A 29.97 1015 1 2 N/A
6:49 am 06:49 Mostly Cloudy with Fog 61 16 61 16 100 100 N N/A 29.97 1015 0 0 N/A
6:53 am 06:53 Partly Cloudy with Fog 60 15.6 60 15.6 100 100 N N/A 29.98 1015 3 5 N/A
7:53 am 07:53 Mostly Sunny 65 18.3 64 17.8 97 97 N N/A 29.98 1015 10 16 N/A
8:53 am 08:53 Mostly Sunny 70 21.1 66 18.9 87 87 N N/A 29.98 1015 10 16 N/A
9:53 am 09:53 Partly Cloudy 75 23.9 67 19.4 76 76 SW 3 6 29.98 1015 10 16 N/A
10:53 am 10:53 Mostly Sunny 80 26.7 66 18.9 62 62 S 5 7 29.98 1015 10 16 N/A
11:53 am 11:53 Mostly Sunny 83 28.3 66 18.9 57 57 N N/A 29.97 1015 10 16 N/A
12:53 pm 12:53 Mostly Sunny 84 28.9 64 17.8 51 51 N N/A 29.96 1015 10 16 N/A
1:53 pm 13:53 Partly Cloudy 85 29.4 67 19.4 55 55 SW 5 7 29.94 1014 10 16 N/A
2:53 pm 14:53 Mostly Cloudy 84 28.9 67 19.4 57 57 SSW 12 19 29.94 1014 10 16 N/A
3:53 pm 15:53 Mostly Sunny 84 28.9 65 18.3 53 53 S 8 13 29.92 1013 10 16 N/A
4:53 pm 16:53 Sunny 84 28.9 67 19.4 57 57 S 10 17 29.90 1013 10 16 N/A
5:53 pm 17:53 Mostly Sunny 84 28.9 66 18.9 55 55 S 6 9 29.89 1012 10 16 N/A
6:53 pm 18:53 Partly Cloudy 83 28.3 71 21.7 67 67 SSE 5 7 29.90 1013 10 16 N/A
7:48 pm 19:48 Cloudy with Light Rain 72 22 66 19 83 83 WSW 8 13 29.94 1014 4 6 N/A
7:53 pm 19:53 Sunny 81 27 66 19 62 62 S 5 7 29.91 1013 10 16 N/A
8:53 pm 20:53 Mostly Cloudy with Light Rain 70 21.1 69 20.6 97 97 N N/A 29.96 1014 8 13 0.04 1.02
9:53 pm 21:53 Clear 69 20.6 69 20.6 100 100 N N/A 29.96 1015 9 14 N/A
10:53 pm 22:53 Clear 69 20.6 69 20.6 100 100 N N/A 29.96 1015 9 14 N/A
11:53 pm 23:53 Clear 68 20 68 20 100 100 SSW 3 6 29.98 1015 9 14 N/A

Powered by AerisWeather